Regional Weather Roundup
Issued by NWS Goodland, KS

Home | Current Version | Previous Version | Text Only | Print | Product List | Glossary On
Versions: 1 2 3 4 5 6 7 8 9 10 11 12 13 14 15 16 17 18 19 20 21 22 23 24 25 26 27 28 29 30 31 32 33 34 35 36 37 38 39 40 41 42 43 44 45 46 47 48 49 50
000
ASUS43 KGLD 231708
RWRGLD

GOODLAND FORECAST AREA HOURLY WEATHER ROUNDUP
NATIONAL WEATHER SERVICE GOODLAND KS
1100 AM MDT WED APR 23 2014

...OFFICIAL OBSERVATIONS...

CITY           SKY/WX    TMP DP  RH WIND       PRES   REMARKS
GOODLAND KS    CLOUDY    73  45  36 SW20G26   29.59S
HILL CITY KS   PTSUNNY   77  48  35 S32G44    29.58F
IMPERIAL NEB   CLOUDY    68  41  37 NW22      29.59R
MCCOOK NEB     CLOUDY    75  47  36 W14       29.56R
AKRON CO       MOSUNNY   63  39  41 N17G25    29.65R
BURLINGTON CO  CLOUDY    73  39  29 SW22G32   29.62F
LIMON CO       SUNNY     71  23  16 SW17      29.65S
$$

...UNOFFICIAL OBSERVATIONS...

CITY           SKY/WX    TMP DP  RH WIND       PRES   REMARKS
COLBY KS       SUNNY     75  48  38 S25       29.59S
LENORA KS        N/A     76  32  20 S29         N/A
LEOTI KS         N/A     77  32  19 SW9         N/A
NORTON KS      SUNNY     73  46  38 S21G29    29.56F
SHARON SPRINGS   N/A     76  48  37 SW20G30     N/A
ST FRANCIS KS  CLOUDY    75  37  25 SW25      29.56S
WAKEENEY KS      N/A     78  46  31 MISG        N/A
TRENTON NEB      N/A     72  32  23 NW16        N/A
KIT CARSON CO    N/A     72  40  30 MISG        N/A
$$



USA.gov is the U.S. government's official web portal to all federal, state and local government web resources and services.